Airfield :
LOGIN :

Register | Disclaimer

   EN    FR    IT 

 










Legend :    VFR   Marginal VFR   IFR   Intensive IFR   Very Intensive IFR
Visi :
Ceiling :
>= 8 km
>= 3000ft
5 to 8 km
1000 to 3000 ft
1500m to 5 km
500 to 1000 ft
800 to 1500m
200 to 500 ft
< 800m
< 200 ft
Symbols :   Thunderstorms  Fog  Heavy snow  Heavy precipitations  Wind > 20 kt
SIGMETs :     Misc.  Thunderstorms  Icing  Turbulence  Mountain Waves  Volcanic Ashes







- Airport Elevation : 1966 ft
- IATA code : SGE


EDGS - Siegerland

CURRENT METAR :
  • 200850Z 24012KT 9999 BKN003 M01/M02 Q1005

EXPIRED METARs :
  • 200820Z 24013KT 9999 SCT003 BKN007 M01/M02 Q1006
  • 200750Z 23012KT 9999 SCT002 BKN004 M01/M01 Q1006
  • 200720Z 24013KT 9999 4000S PRFG BKN002 M01/M01 Q1006
  • 200650Z 24013KT 4500 BR SCT002 BKN003 M01/M01 Q1006

TAF TAF EDGS
Valid from the 20 at 09:00 until the 20 at 18:00 UTC


200800Z 2009/2018 22010KT 9999 BKN007
TEMPO 2009/2013 BKN004
PROB30
TEMPO 2010/2013 2500 -SNRA
BECMG 2013/2016 15007KT 1500 -SN BKN002
TEMPO 2016/2018 0400 SN BKN001
No reported NOTAMs for that airfield.



MET'MAP, your aeronautical weather chart ! - Copyright ORBIFLY December 2007 - Disclaimer

ORBIFLY MET'MAP TEAM :

Programming & Development : Alexandra Zaïnal
Concept & Development : Baudouin d'Aumeries
Co-Development & Prog : Marc-Olivier Méhu
Technical & hardware support : Manuel Goepfert

Contact : metmap@orbifly.com




SOURCES & CREDITS :

   NOAA